Springfield, OH

12:07 AM EDT on September 25, 2017 (GMT -0400)
Springfield-Beckley Municipal

Weather History for KSGH - August, 2013

Change the Weather History Date:

Wednesday, August 7, 2013

  Actual Average (KFFO) Record (KFFO)
Temperature  
Mean Temperature 75 °F -  
Max Temperature 82 °F 81 °F 98 °F (2007)
Min Temperature 68 °F 61 °F 51 °F (2004)
Cooling Degree Days 10    
Growing Degree Days 25 (Base 50)    
Moisture  
Dew Point 72 °F    
Average Humidity 88    
Maximum Humidity 100    
Minimum Humidity 71    
Precipitation  
Precipitation 0.00 in - - ()
Sea Level Pressure  
Sea Level Pressure 29.94 in    
Wind  
Wind Speed 5 mph (South)    
Max Wind Speed 9 mph    
Max Gust Speed -    
Visibility 5 miles    
Events      
Averages and records for this station are not official NWS values.
T = Trace of Precipitation, MM = Missing Value Source: NWS Daily Summary

Daily Weather History Graph

Daily Weather History Graph

Search for Another Location

Airport or City:

Trip Planner

Search our weather history database for the weather conditions in past years. The results will help you decide how hot, cold, wet, or windy it might be!

Date:

Astronomy

Aug. 07, 2013 Rise Set
Actual Time 6:39 AM EDT 8:41 PM EDT
Civil Twilight 6:10 AM EDT 9:11 PM EDT
Nautical Twilight 5:34 AM EDT 9:47 PM EDT
Astronomical Twilight 4:54 AM EDT 10:26 PM EDT
Moon 7:27 AM EDT (8/7) 8:48 PM EDT (8/7)
Length of Visible Light 15h 00m
Length of Day
14h 01m
New Moon, 1% of the Moon is Illuminated
Aug 7
New Moon
Aug 14
First Quarter
Aug 20
Full
Aug 28
Last Quarter
Sep 5
New

Hourly Weather History & Observations

Time (EDT) Temp. Heat Index Dew Point Humidity Pressure Visibility Wind Dir Wind Speed Gust Speed Precip Events Conditions
12:56 AM 68.0 °F - 66.9 °F 96% 29.96 in 8.0 mi SSE 4.6 mph - N/A   Clear
1:56 AM 68.0 °F - 66.9 °F 96% 29.96 in 7.0 mi South 3.5 mph - N/A   Mostly Cloudy
2:56 AM 68.9 °F - 66.9 °F 93% 29.96 in 7.0 mi South 4.6 mph - N/A   Scattered Clouds
3:56 AM 68.0 °F - 66.9 °F 96% 29.95 in 7.0 mi South 4.6 mph - N/A   Clear
4:56 AM 68.0 °F - 66.9 °F 96% 29.94 in 7.0 mi South 4.6 mph - N/A   Scattered Clouds
5:56 AM 68.9 °F - 68.9 °F 100% 29.93 in 6.0 mi South 3.5 mph - N/A   Mostly Cloudy
6:33 AM 69.8 °F - 69.8 °F 100% 29.96 in 5.0 mi South 3.5 mph - N/A   Mostly Cloudy
6:44 AM 69.8 °F - 69.8 °F 100% 29.96 in 5.0 mi South 3.5 mph - N/A   Mostly Cloudy
6:56 AM 70.0 °F - 68.9 °F 96% 29.94 in 5.0 mi South 3.5 mph - N/A   Mostly Cloudy
7:35 AM 69.8 °F - 69.8 °F 100% 29.95 in 3.0 mi South 4.6 mph - N/A   Scattered Clouds
7:56 AM 70.9 °F - 70.0 °F 97% 29.94 in 4.0 mi South 4.6 mph - N/A   Scattered Clouds
8:56 AM 72.9 °F - 70.9 °F 93% 29.95 in 4.0 mi South 4.6 mph - N/A   Partly Cloudy
9:17 AM 73.4 °F - 71.6 °F 94% 29.98 in 4.0 mi SW 6.9 mph - N/A   Mostly Cloudy
9:56 AM 75.9 °F - 72.9 °F 90% 29.96 in 4.0 mi SW 8.1 mph - N/A   Partly Cloudy
10:21 AM 77.0 °F - 73.4 °F 89% 29.98 in 3.0 mi SSW 9.2 mph - N/A   Mostly Cloudy
10:56 AM 79.0 °F - 73.9 °F 84% 29.96 in 4.0 mi SSW 8.1 mph - N/A   Haze
11:14 AM 78.8 °F - 73.4 °F 83% 29.98 in 4.0 mi SSW 6.9 mph - N/A   Haze
11:56 AM 79.9 °F - 72.9 °F 79% 29.96 in 4.0 mi SSW 5.8 mph - N/A   Haze
12:03 PM 80.6 °F 85.4 °F 73.4 °F 79% 29.98 in 4.0 mi SW 6.9 mph - N/A   Haze
12:56 PM 81.9 °F 87.7 °F 73.9 °F 77% 29.95 in 4.0 mi SSW 8.1 mph - N/A   Haze
1:56 PM 81.0 °F 85.6 °F 72.9 °F 76% 29.94 in 4.0 mi SW 6.9 mph - N/A   Haze
2:56 PM 79.9 °F - 72.9 °F 79% 29.93 in 4.0 mi SSW 4.6 mph - N/A   Haze
3:37 PM 82.4 °F 88.2 °F 73.4 °F 74% 29.95 in 5.0 mi SSW 5.8 mph - N/A   Haze
3:56 PM 82.9 °F 88.5 °F 72.9 °F 71% 29.91 in 5.0 mi South 5.8 mph - N/A   Haze
4:56 PM 82.9 °F 89.4 °F 73.9 °F 74% 29.90 in 5.0 mi South 5.8 mph - N/A   Haze
5:13 PM 82.4 °F 89.5 °F 75.2 °F 79% 29.93 in 5.0 mi SSW 5.8 mph - N/A   Haze
5:56 PM 81.9 °F 87.7 °F 73.9 °F 77% 29.90 in 5.0 mi SSW 4.6 mph - N/A   Haze
6:38 PM 80.6 °F 85.4 °F 73.4 °F 79% 29.92 in 5.0 mi Calm Calm - N/A   Haze
6:56 PM 81.0 °F 85.6 °F 72.9 °F 76% 29.90 in 5.0 mi South 3.5 mph - N/A   Haze
7:56 PM 79.0 °F - 73.9 °F 84% 29.91 in 6.0 mi South 3.5 mph - N/A   Haze
8:56 PM 75.9 °F - 72.9 °F 90% 29.91 in 7.0 mi South 3.5 mph - N/A   Mostly Cloudy
9:56 PM 74.8 °F - 72.9 °F 94% 29.92 in 7.0 mi Calm Calm - N/A   Partly Cloudy
10:10 PM 73.4 °F - 73.4 °F 100% 29.95 in 6.0 mi Calm Calm - N/A   Mostly Cloudy
10:32 PM 73.4 °F - 71.6 °F 94% 29.97 in 5.0 mi South 3.5 mph - N/A   Partly Cloudy
10:56 PM 73.9 °F - 72.9 °F 96% 29.94 in 7.0 mi South 3.5 mph - N/A   Clear
11:56 PM 70.0 °F - 68.9 °F 96% 29.94 in 4.0 mi SE 4.6 mph - N/A   Clear